GW5851 Weather Reports


Display with metric or nautical units.
time (UTC)temp
F
wind
direction
speed
MPH
gust
MPH
rain 1hr
in
rain 24hr
in
rain mn
in
humidity
%
barometer
mb
20260506232657 52 217 0.0 0.0 0.00 0.00 0.00 47 979.0
20260506232159 52 263 0.0 1.0 0.00 0.00 0.00 44 979.0
20260506231655 53 249 0.0 1.0 0.00 0.00 0.00 47 978.0
20260506231155 53 352 0.0 1.0 0.00 0.00 0.00 45 978.0
20260506230655 53 219 0.0 1.0 0.00 0.00 0.00 46 978.0
20260506230158 53 294 1.0 1.0 0.00 0.00 0.00 47 978.0
20260506225655 53 296 1.0 1.0 0.00 0.00 0.00 45 978.0
20260506225155 53 276 0.0 1.0 0.00 0.00 0.00 45 978.0
20260506224658 53 308 2.0 4.0 0.00 0.00 0.00 45 979.0
20260506224156 53 265 5.0 7.0 0.00 0.00 0.00 43 978.0
20260506223657 53 228 1.0 3.0 0.00 0.00 0.00 43 978.0
20260506223157 53 325 3.0 6.0 0.00 0.00 0.00 42 978.0
20260506222657 53 297 1.0 2.0 0.00 0.00 0.00 45 979.0
20260506222157 53 247 2.0 3.0 0.00 0.00 0.00 44 978.0
20260506221657 53 291 1.0 3.0 0.00 0.00 0.00 45 979.0
20260506221158 54 354 2.0 4.0 0.00 0.00 0.00 43 979.0
20260506220657 54 266 5.0 6.0 0.00 0.00 0.00 44 979.0
20260506220157 54 267 1.0 4.0 0.00 0.00 0.00 43 979.0
20260506215659 55 3 2.0 4.0 0.00 0.00 0.00 42 979.0
20260506215155 54 302 4.0 4.0 0.00 0.00 0.00 41 979.0
20260506214657 54 261 0.0 6.0 0.00 0.00 0.00 45 978.0
20260506214157 54 21 3.0 10.0 0.00 0.00 0.00 40 979.0
20260506213657 54 240 3.0 3.0 0.00 0.00 0.00 43 978.0
20260506213157 54 257 3.0 9.0 0.00 0.00 0.00 42 978.0
20260506212656 54 298 2.0 4.0 0.00 0.00 0.00 43 978.0
20260506212201 54 270 3.0 7.0 0.00 0.00 0.00 42 978.0
20260506211659 55 18 3.0 4.0 0.00 0.00 0.00 43 978.0
20260506211159 55 333 2.0 4.0 0.00 0.00 0.00 41 978.0
20260506210655 55 349 2.0 3.0 0.00 0.00 0.00 41 978.0
20260506210155 55 12 3.0 4.0 0.00 0.00 0.00 42 978.0
20260506205659 55 330 4.0 7.0 0.00 0.00 0.00 41 979.0
20260506205158 55 313 2.0 6.0 0.00 0.00 0.00 42 978.0
20260506204655 56 356 3.0 7.0 0.00 0.00 0.00 42 978.0
20260506204155 55 58 3.0 7.0 0.00 0.00 0.00 40 978.0
20260506203659 55 331 3.0 9.0 0.00 0.00 0.00 41 979.0
20260506203158 56 310 4.0 8.0 0.00 0.00 0.00 40 978.0
20260506202659 56 255 5.0 8.0 0.00 0.00 0.00 41 978.0
20260506202200 55 11 3.0 6.0 0.00 0.00 0.00 40 978.0
20260506201659 55 267 2.0 4.0 0.00 0.00 0.00 40 978.0
20260506201155 55 311 2.0 6.0 0.00 0.00 0.00 43 979.0
20260506200657 55 318 4.0 4.0 0.00 0.00 0.00 40 978.0
20260506200158 56 244 4.0 7.0 0.00 0.00 0.00 41 979.0
20260506195657 56 276 4.0 6.0 0.00 0.00 0.00 42 979.0
20260506195159 55 266 1.0 4.0 0.00 0.00 0.00 44 979.0
20260506194657 56 282 5.0 9.0 0.00 0.00 0.00 43 979.0
20260506194157 56 265 8.0 13.0 0.00 0.00 0.00 40 979.0
20260506193658 56 298 4.0 7.0 0.00 0.00 0.00 39 979.0
20260506193159 56 261 1.0 3.0 0.00 0.00 0.00 44 979.0
20260506192657 55 0 4.0 9.0 0.00 0.00 0.00 44 979.0
20260506192156 54 285 6.0 11.0 0.00 0.00 0.00 41 979.0
20260506191657 54 310 5.0 9.0 0.00 0.00 0.00 42 979.0
20260506191158 54 1 5.0 6.0 0.00 0.00 0.00 45 979.0
20260506190656 54 26 5.0 6.0 0.00 0.00 0.00 41 979.0
20260506190157 55 326 6.0 9.0 0.00 0.00 0.00 41 979.0
20260506185657 55 354 6.0 9.0 0.00 0.00 0.00 42 979.0
20260506185155 55 355 5.0 7.0 0.00 0.00 0.00 45 979.0
20260506184657 55 277 2.0 6.0 0.00 0.00 0.00 42 979.0
20260506184157 55 329 2.0 7.0 0.00 0.00 0.00 40 979.0
20260506183655 55 189 1.0 2.0 0.00 0.00 0.00 43 979.0
20260506183201 55 16 1.0 4.0 0.00 0.00 0.00 43 979.0
20260506182657 55 321 3.0 8.0 0.00 0.00 0.00 42 978.0
20260506182200 55 324 2.0 7.0 0.00 0.00 0.00 44 979.0
20260506181659 54 306 2.0 8.0 0.00 0.00 0.00 45 978.0
20260506181157 54 266 3.0 4.0 0.00 0.00 0.00 43 979.0
20260506180657 53 357 4.0 8.0 0.00 0.00 0.00 50 979.0
20260506180158 53 276 4.0 8.0 0.00 0.00 0.00 45 979.0
20260506175659 52 310 2.0 7.0 0.00 0.00 0.00 48 979.0
20260506175157 52 301 3.0 6.0 0.00 0.00 0.00 45 979.0
20260506174658 52 302 4.0 8.0 0.00 0.00 0.00 47 979.0
20260506174158 52 11 5.0 6.0 0.00 0.00 0.00 49 979.0
20260506173656 53 9 5.0 7.0 0.00 0.00 0.00 50 979.0
20260506173157 53 287 2.0 4.0 0.00 0.00 0.00 48 979.0
20260506172657 53 329 3.0 6.0 0.00 0.00 0.00 46 979.0
20260506172157 53 268 6.0 10.0 0.00 0.00 0.00 47 980.0
20260506171657 52 315 3.0 9.0 0.00 0.00 0.00 47 979.0
20260506171159 52 309 6.0 9.0 0.00 0.00 0.00 46 979.0
20260506170658 51 354 4.0 6.0 0.00 0.00 0.00 49 979.0
20260506170200 51 309 3.0 7.0 0.00 0.00 0.00 49 979.0
20260506165658 51 327 4.0 9.0 0.00 0.00 0.00 47 979.0
20260506165156 51 353 3.0 14.0 0.00 0.00 0.00 49 979.0
20260506164655 50 333 5.0 7.0 0.00 0.00 0.00 52 979.0
20260506164157 50 21 5.0 7.0 0.00 0.00 0.00 51 979.0
20260506163659 50 341 6.0 8.0 0.00 0.00 0.00 48 979.0
20260506163157 51 358 4.0 9.0 0.00 0.00 0.00 52 979.0
20260506162657 51 337 4.0 8.0 0.00 0.00 0.00 51 979.0
20260506161706 51 303 4.0 10.0 0.00 0.00 0.00 49 979.0
20260506161157 52 18 2.0 6.0 0.00 0.00 0.00 49 979.0
20260506160704 52 349 3.0 7.0 0.00 0.00 0.00 49 979.0
20260506160157 52 62 1.0 8.0 0.00 0.00 0.00 51 979.0
20260506155656 52 17 2.0 7.0 0.00 0.00 0.00 49 979.0
20260506155158 52 343 4.0 8.0 0.00 0.00 0.00 50 979.0
20260506154658 52 291 4.0 7.0 0.00 0.00 0.00 47 979.0
20260506154157 52 266 6.0 10.0 0.00 0.00 0.00 46 979.0
20260506153656 52 359 3.0 7.0 0.00 0.00 0.00 49 979.0
20260506153157 52 300 4.0 10.0 0.00 0.00 0.00 45 979.0
20260506152657 52 310 2.0 13.0 0.00 0.00 0.00 42 979.0
20260506152155 52 333 2.0 6.0 0.00 0.00 0.00 44 979.0
20260506151657 53 273 3.0 10.0 0.00 0.00 0.00 40 979.0
20260506151158 53 75 3.0 7.0 0.00 0.00 0.00 45 979.0
20260506150657 53 18 4.0 8.0 0.00 0.00 0.00 44 978.0
20260506150157 53 306 5.0 14.0 0.00 0.00 0.00 43 979.0
20260506145655 53 304 5.0 11.0 0.00 0.00 0.00 48 979.0
20260506145157 53 325 4.0 8.0 0.00 0.00 0.00 45 979.0
20260506144658 52 298 2.0 4.0 0.00 0.00 0.00 47 978.0
20260506144157 52 321 4.0 6.0 0.00 0.00 0.00 43 978.0
20260506143657 52 355 7.0 11.0 0.00 0.00 0.00 44 978.0
20260506143157 52 286 6.0 9.0 0.00 0.00 0.00 44 978.0
20260506142657 53 254 6.0 9.0 0.00 0.00 0.00 46 978.0
20260506142200 53 355 5.0 9.0 0.00 0.00 0.00 49 978.0
20260506141657 53 333 2.0 4.0 0.00 0.00 0.00 47 978.0
20260506141205 52 336 4.0 8.0 0.00 0.00 0.00 47 978.0
20260506140658 52 32 3.0 7.0 0.00 0.00 0.00 48 978.0
20260506140157 52 359 3.0 7.0 0.00 0.00 0.00 45 978.0
20260506135658 52 316 4.0 8.0 0.00 0.00 0.00 43 978.0
20260506135157 52 296 3.0 7.0 0.00 0.00 0.00 45 978.0
20260506134658 52 33 3.0 7.0 0.00 0.00 0.00 47 978.0
20260506134157 52 344 5.0 8.0 0.00 0.00 0.00 45 978.0
20260506133657 52 263 3.0 7.0 0.00 0.00 0.00 48 978.0
20260506133157 51 324 5.0 10.0 0.00 0.00 0.00 47 978.0
20260506132657 50 290 4.0 7.0 0.00 0.00 0.00 52 978.0
20260506132157 50 294 3.0 10.0 0.00 0.00 0.00 50 978.0
20260506131657 50 240 4.0 8.0 0.00 0.00 0.00 53 977.0
20260506131158 50 285 3.0 4.0 0.00 0.00 0.00 53 978.0
20260506130657 50 301 2.0 4.0 0.00 0.00 0.00 53 978.0
20260506130158 50 251 8.0 10.0 0.00 0.00 0.00 51 978.0
20260506125659 50 305 3.0 7.0 0.00 0.00 0.00 51 978.0
20260506125155 49 347 4.0 6.0 0.00 0.00 0.00 56 977.0
20260506124659 49 307 3.0 4.0 0.00 0.00 0.00 55 977.0
20260506124157 48 287 3.0 6.0 0.00 0.00 0.00 56 977.0
20260506123657 48 294 3.0 7.0 0.00 0.00 0.00 55 977.0
20260506123201 49 255 3.0 9.0 0.00 0.00 0.00 54 977.0
20260506122657 48 326 2.0 3.0 0.00 0.00 0.00 58 977.0
20260506122158 47 305 4.0 7.0 0.00 0.00 0.00 59 977.0
20260506121659 46 322 2.0 6.0 0.00 0.00 0.00 61 977.0
20260506121157 46 231 1.0 3.0 0.00 0.00 0.00 63 977.0
20260506120700 44 324 1.0 4.0 0.00 0.00 0.00 64 977.0
20260506120157 44 10 1.0 2.0 0.00 0.00 0.00 64 977.0
20260506115659 44 268 1.0 1.0 0.00 0.00 0.00 64 977.0
20260506115200 44 291 1.0 2.0 0.00 0.00 0.00 64 977.0
20260506114657 44 274 1.0 1.0 0.00 0.00 0.00 64 976.0
20260506114159 44 265 2.0 3.0 0.00 0.00 0.00 65 977.0
20260506113659 43 279 2.0 3.0 0.00 0.00 0.00 65 977.0
20260506113157 43 271 2.0 3.0 0.00 0.00 0.00 65 977.0
20260506112700 43 228 1.0 2.0 0.00 0.00 0.00 66 977.0
20260506112156 42 223 0.0 2.0 0.00 0.00 0.00 66 977.0
20260506111658 42 216 1.0 1.0 0.00 0.00 0.00 68 977.0
20260506111157 42 231 0.0 2.0 0.00 0.00 0.00 67 976.0
20260506110659 42 238 1.0 1.0 0.00 0.00 0.00 67 976.0
20260506110157 42 270 2.0 2.0 0.00 0.00 0.00 68 976.0
20260506105658 42 247 0.0 1.0 0.00 0.00 0.00 69 976.0
20260506105200 42 243 0.0 2.0 0.00 0.00 0.00 67 976.0
20260506104657 43 242 0.0 0.0 0.00 0.00 0.00 66 976.0
20260506104158 43 305 0.0 1.0 0.00 0.00 0.00 65 976.0
20260506103657 44 260 0.0 0.0 0.00 0.00 0.00 64 976.0
20260506103157 44 264 2.0 3.0 0.00 0.00 0.00 63 976.0
20260506102658 44 240 1.0 2.0 0.00 0.00 0.00 64 976.0
20260506102157 44 295 1.0 2.0 0.00 0.00 0.00 63 976.0
20260506101656 45 254 1.0 1.0 0.00 0.00 0.00 62 976.0
20260506101158 45 300 1.0 2.0 0.00 0.00 0.00 63 976.0
20260506100658 45 254 1.0 2.0 0.00 0.00 0.00 62 976.0
20260506100159 45 268 1.0 2.0 0.00 0.00 0.00 62 976.0
20260506095657 45 275 2.0 4.0 0.00 0.00 0.00 62 976.0
20260506095158 45 250 2.0 4.0 0.00 0.00 0.00 62 976.0
20260506094659 45 329 1.0 3.0 0.00 0.00 0.00 62 976.0
20260506094159 45 264 2.0 2.0 0.00 0.00 0.00 62 976.0
20260506093657 45 276 2.0 3.0 0.00 0.00 0.00 62 975.0
20260506093155 45 246 1.0 2.0 0.00 0.00 0.00 63 976.0
20260506092659 45 276 3.0 4.0 0.00 0.00 0.00 62 975.0
20260506092159 45 329 1.0 2.0 0.00 0.00 0.00 63 975.0
20260506091657 45 256 1.0 1.0 0.00 0.00 0.00 63 975.0
20260506091157 45 242 0.0 2.0 0.00 0.00 0.00 61 975.0
20260506090658 45 307 1.0 2.0 0.00 0.00 0.00 61 975.0
20260506090200 45 271 1.0 3.0 0.00 0.00 0.00 61 975.0
20260506085659 45 305 1.0 4.0 0.00 0.00 0.00 61 975.0
20260506085200 45 215 1.0 3.0 0.00 0.00 0.00 62 975.0
20260506084657 45 299 1.0 1.0 0.00 0.00 0.00 63 975.0
20260506084201 45 280 1.0 2.0 0.00 0.00 0.00 63 975.0
20260506083659 45 346 1.0 3.0 0.00 0.00 0.00 63 975.0
20260506083200 45 306 2.0 3.0 0.00 0.00 0.00 62 975.0
20260506082657 45 294 1.0 3.0 0.00 0.00 0.00 62 975.0
20260506082200 45 289 1.0 3.0 0.00 0.00 0.00 63 975.0
20260506081658 45 276 1.0 2.0 0.00 0.00 0.00 63 975.0
20260506081156 45 343 1.0 4.0 0.00 0.00 0.00 63 975.0
20260506080657 45 1 2.0 3.0 0.00 0.00 0.00 63 975.0
20260506080157 45 263 1.0 2.0 0.00 0.00 0.00 64 975.0
20260506073159 46 204 0.0 2.0 0.00 0.00 0.00 62 975.0
20260506072700 46 267 1.0 2.0 0.00 0.00 0.00 62 975.0
20260506072155 46 345 2.0 2.0 0.00 0.00 0.00 62 975.0
20260506071659 46 329 1.0 1.0 0.00 0.00 0.00 62 975.0
20260506071158 46 216 0.0 2.0 0.00 0.00 0.00 62 975.0
20260506070655 46 295 1.0 2.0 0.00 0.00 0.00 62 975.0
20260506070159 46 292 1.0 2.0 0.00 0.00 0.00 63 975.0
20260506062157 47 248 1.0 2.0 0.00 0.00 0.00 60 975.0
20260506061656 47 233 0.0 0.0 0.00 0.00 0.00 60 976.0
20260506061159 47 230 1.0 1.0 0.00 0.00 0.00 60 975.0
20260506060657 47 333 1.0 2.0 0.00 0.00 0.00 59 975.0
20260506060158 47 263 3.0 6.0 0.00 0.00 0.00 59 976.0
20260506051157 47 250 1.0 2.0 0.00 0.00 0.00 58 975.0
20260506050657 47 263 1.0 3.0 0.00 0.00 0.00 58 975.0
20260506050157 47 233 0.0 2.0 0.00 0.00 0.00 58 975.0
20260506044657 47 260 1.0 2.0 0.00 0.00 0.00 60 975.0
20260506044156 47 266 2.0 3.0 0.00 0.00 0.00 59 975.0
20260506043657 48 214 0.0 1.0 0.00 0.00 0.00 60 975.0
20260506043202 48 208 0.0 3.0 0.00 0.00 0.00 59 975.0
20260506042656 48 217 0.0 1.0 0.00 0.00 0.00 59 975.0
20260506042156 48 208 1.0 2.0 0.00 0.00 0.00 59 975.0
20260506041657 48 241 1.0 2.0 0.00 0.00 0.00 59 975.0
20260506041157 48 264 3.0 3.0 0.00 0.00 0.00 58 975.0
20260506040655 48 275 1.0 2.0 0.00 0.00 0.00 57 975.0
20260506040158 48 263 1.0 2.0 0.00 0.00 0.00 58 975.0
20260506035655 48 277 2.0 3.0 0.00 0.00 0.00 57 975.0
20260506035156 48 243 1.0 3.0 0.00 0.00 0.00 59 975.0
20260506034656 48 241 0.0 2.0 0.00 0.00 0.00 59 975.0
20260506034158 48 256 1.0 3.0 0.00 0.00 0.00 58 975.0
20260506033657 47 270 0.0 2.0 0.00 0.00 0.00 61 975.0
20260506033156 48 229 0.0 1.0 0.00 0.00 0.00 61 975.0
20260506032657 48 225 0.0 0.0 0.00 0.00 0.00 60 975.0
20260506032156 48 309 0.0 1.0 0.00 0.00 0.00 59 975.0
20260506031655 48 218 0.0 0.0 0.00 0.00 0.00 58 975.0
20260506031159 48 219 0.0 0.0 0.00 0.00 0.00 57 975.0
20260506030656 48 216 0.0 1.0 0.00 0.00 0.00 58 975.0
20260506030157 48 215 0.0 2.0 0.00 0.00 0.00 57 975.0
20260506025657 48 216 0.0 2.0 0.00 0.00 0.00 56 975.0
20260506025201 48 215 0.0 0.0 0.00 0.00 0.00 58 975.0
20260506024659 48 234 1.0 1.0 0.00 0.00 0.00 58 975.0
20260506024158 48 256 1.0 1.0 0.00 0.00 0.00 58 975.0
20260506023655 48 201 0.0 0.0 0.00 0.00 0.00 57 975.0
20260506023157 48 201 0.0 0.0 0.00 0.00 0.00 56 975.0
20260506022656 48 201 0.0 0.0 0.00 0.00 0.00 57 975.0
20260506022157 49 201 0.0 0.0 0.00 0.00 0.00 56 975.0
20260506021657 49 223 1.0 1.0 0.00 0.00 0.00 55 975.0
20260506021157 49 254 1.0 1.0 0.00 0.00 0.00 54 975.0
20260506020659 49 241 0.0 1.0 0.00 0.00 0.00 53 975.0
20260506020159 49 216 0.0 1.0 0.00 0.00 0.00 54 975.0
20260506015655 49 300 0.0 1.0 0.00 0.00 0.00 52 975.0
20260506015157 49 240 0.0 1.0 0.00 0.00 0.00 53 975.0
20260506014655 49 257 1.0 3.0 0.00 0.00 0.00 52 975.0
20260506014157 49 251 1.0 6.0 0.00 0.00 0.00 51 975.0
20260506013655 49 238 0.0 2.0 0.00 0.00 0.00 54 975.0
20260506013156 49 303 1.0 2.0 0.00 0.00 0.00 52 975.0
20260506012658 49 342 5.0 6.0 0.00 0.00 0.00 53 975.0
20260506012205 49 14 0.0 2.0 0.00 0.00 0.00 53 974.0
20260506011658 49 202 0.0 2.0 0.00 0.00 0.00 54 975.0
20260506011159 49 221 0.0 1.0 0.00 0.00 0.00 55 974.0
20260506010656 50 208 0.0 1.0 0.00 0.00 0.00 55 974.0
20260506010157 50 204 1.0 2.0 0.00 0.00 0.00 51 975.0
20260506005657 50 218 0.0 0.0 0.00 0.00 0.00 51 974.0
20260506005159 50 230 0.0 1.0 0.00 0.00 0.00 51 974.0
20260506004657 50 232 1.0 3.0 0.00 0.00 0.00 49 974.0
20260506004157 50 284 2.0 6.0 0.00 0.00 0.00 48 974.0
20260506003656 50 282 3.0 4.0 0.00 0.00 0.00 48 975.0
20260506003157 51 281 2.0 3.0 0.00 0.00 0.00 48 975.0
20260506002659 51 238 1.0 2.0 0.00 0.00 0.00 50 975.0
20260506002157 51 267 3.0 4.0 0.00 0.00 0.00 47 974.0
20260506001659 51 350 1.0 6.0 0.00 0.00 0.00 48 975.0
20260506001155 51 243 2.0 6.0 0.00 0.00 0.00 50 975.0
20260506000657 51 21 2.0 4.0 0.00 0.00 0.00 50 975.0
20260506000155 52 290 1.0 4.0 0.00 0.00 0.00 51 975.0
20260505235657 52 278 1.0 3.0 0.00 0.00 0.00 50 974.0
20260505235159 52 278 4.0 7.0 0.00 0.00 0.00 50 974.0
20260505234656 52 281 3.0 4.0 0.00 0.00 0.00 53 974.0
20260505234157 52 231 2.0 3.0 0.00 0.00 0.00 54 974.0
20260505233657 52 208 1.0 3.0 0.00 0.00 0.00 52 974.0
20260505233156 52 274 1.0 3.0 0.00 0.00 0.00 54 974.0